GOES 3 [-]

Last updated on Jan. 18, 2020, 4:37 a.m. UTC

1 10953U 78062A   20017.21669781 -.00000212  00000-0  00000-0 0  9997
2 10953  11.9485 320.7763 0004729   5.2107 165.6863  0.99360169105254
UTC
Height (km)
Latitude
Longitude
Inclination
Orbital Period
UTC large
Height (km)
Speed (km/s)
/
Latitude / Longitude
Inclination (degrees)
Orbital Period (minutes)
Azimuth
Elevation
Range (km)
Doppler Factor
iOS Compass Heading
iOS Angle

Next 30 passes for location: Hong Kong

Rise time Rise Azimuth (degrees) Set time Set Azimuth (degrees) Duration Max altitude (degrees)

No matching passes for this satellites